STARLINK-32784, 62607

Orbit data source: Space-Track

STARLINK-32784, 62607 is a payload satellite owned by SpaceX/Seattle (US) in LEO that was launched on Mon, 13 Jan 2025 UTC via an FALCON 9 launch vehicle from the Air Force Eastern Test Range (AFETR). Payloads include a variety of satellites, spacecraft, and rockets equipped with specific instruments for various scientific and technological missions. These include communications satellites like Starlink; space stations such as the ISS; scientific satellites like the Hubble; Earth observation satellites from companies like Planet Labs, Umbra, and HawkEye 360; GPS; miniature CubeSats for education and research; and military/defense satellites.

Loading next visibility...
STARLINK-32784 details
Identifier
62607, 2025-008W
Orbit
LEO
Last TLE update13 hours ago
Origin
Flag of USSpaceX/Seattle (US)
ManufacturerSpaceX/Seattle
MissionOperational spacecraft
Bus & MotorSTARLINK V2M, Unknown motor
Mass730 kg wet, ~700 kg dry
Launch date (UTC)
2025-01-13 (1 month ago)
Launch vehicle
FALCON 9
Launch site
Air Force Eastern Test Range (AFETR)
Object type
Payload
Rocket body
Debris
Shape & HBRUnknown
Radar Cross SectionLarge (>1 m²)

Expand to show TLE details & history

TLE from 13 hours ago
0 STARLINK-32784
1 62607U 25008W   25046.91668981 -.00052186  00000-0 -12499-2 0  9992
2 62607  42.9991 303.5478 0001595 266.6970 217.6357 15.40715496  6068
Epoch: 2025-02-15T22:00Z
Definitive object data (Epoch: 2025-02-15T22:00:01.999Z)
Latitude34.41198°
Longitude-39.54946°
Altitude446.197 km
Speed7.649 km/s
True Right ascension05h 06m 27s
True Declination34° 14' 40"
Sunlit
Object was in partial shadow at TLE epoch
Visualization TLE readout
Latitude-36.40635°
Longitude132.35642°
Altitude453.778 km
Speed7.641 km/s
Apparent Right ascension20h 38m 53s
Apparent Declination-66° 36' 27"
Sunlit
Object is in daylight
Visualization observer readout
Local Sidereal Time13:58:43
Azimuth149.342° SSE
Elevation-39.942°
Doppler factor1
Orbital elements
Apogee altitude447.041 km
Perigee altitude444.864 km
Semi-major axis6,824.09 km
Eccentricity0.0001595
Inclination42.9991°
RAAN303.5478°
Arg. of periapsis266.697°
True anomaly217.62454°
Mean anomaly217.6357°
Eccentric anomaly217.63012°
Mean motion3.85014 °/min
BSTAR-0.0012499
Orbital period93.5 mins
Loading maneuver chart data...
Loading historical data...
Loading historical data...
Loading historical data...
Loading historical data...
Loading historical data...
Loading historical data...
Loading historical data...

STARLINK-32784 Visibility forecast

Observer location: undefined°, undefined

Span
Click to sort rows by Start time (UTC) header in descending order
Start Az.
Max El. time (UTC)
Max El. Az.
Max El.
End time (UTC)
End Az.
5 mins2025-02-16 21:03:23.782Z243.794° WSW2025-02-16 21:05:23.782Z213.729° SW43.31°2025-02-16 21:08:23.782Z74.086° E
4 mins2025-02-16 22:42:23.782Z295.335° NW2025-02-16 22:44:23.782Z27.475° NE35.522°2025-02-16 22:46:23.782Z68.818° E
5 mins2025-02-17 00:20:23.782Z294.832° NW2025-02-17 00:22:23.782Z42.547° NE43.033°2025-02-17 00:25:23.782Z98.984° ESE
4 mins2025-02-17 01:58:23.782Z258.465° W2025-02-17 02:00:23.782Z201.192° SSW26.75°2025-02-17 02:02:23.782Z155.544° SSE
|